Regional Weather Roundup
Issued by NWS Jackson, KY

Home | Current Version | Previous Version | Text Only | Print | Product List | Glossary On
Versions: 1 2 3 4 5 6 7 8 9 10 11 12 13 14 15 16 17 18 19 20 21 22 23 24 25 26 27
000
ASUS43 KJKL 280310
RWRJKL

EAST KENTUCKY HOURLY WEATHER ROUNDUP
NATIONAL WEATHER SERVICE JACKSON KY
1100 PM EDT THU APR 27 2017

NOTE: "FAIR" INDICATES FEW OR NO CLOUDS BELOW 12,000 FEET WITH
NO SIGNIFICANT WEATHER AND/OR OBSTRUCTIONS TO VISIBILITY.

* THESE REPORTS ARE NOT UNDER NWS QUALITY CONTROL AND MAY NOT
  REPORT WEATHER SUCH AS PRECIPITATION AND FOG.

KYZ079-080-083-085-087-088-110-112-115-119-120-280400
...EASTERN KENTUCKY...

CITY           SKY/WX    TMP DP  RH WIND       PRES   REMARKS
JACKSON        CLEAR     62  50  64 CALM      29.90R
LONDON         CLEAR     62  52  69 CALM      29.90R
SOMERSET*      CLEAR     57  50  77 CALM      29.91R
MONTICELLO*    CLEAR     56  52  86 NW8       29.91R
WILLIAMSBURG*  CLEAR     59  52  77 CALM      29.91R
MIDDLESBORO*   CLEAR     58  55  90 CALM      29.91R
HARLAN APT*    PTCLDY    59  54  82 CALM      29.91R
PIKE CO APT*     N/A     64  54  70 NW7       29.89R
BIG SANDY APT* CLEAR     65  52  64 CALM      29.89R
MOREHEAD APT*  MOCLDY    57  48  72 CALM      29.91R
$$

KYZ035-036-041-042-044-050-067-078-099-280400
...CENTRAL KENTUCKY...

CITY           SKY/WX    TMP DP  RH WIND       PRES   REMARKS
MT STERLING*   CLEAR     54  48  82 N3        29.91R
FLEMING/MASON* CLEAR     55  46  72 CALM      29.90R
DANVILLE*      CLEAR     54  46  76 CALM      29.91R
LEXINGTON      CLEAR     55  46  71 CALM      29.89R
FRANKFORT      CLEAR     52  46  80 CALM      29.88R
LOUISVILLE     MOCLDY    55  48  77 W5        29.88S
LEBANON*         N/A     54  48  82 CALM      29.89S
GLASGOW*       CLEAR     51  51 100 CALM      29.89R
BOWLING GREEN  CLEAR     54  52  93 CALM      29.88R
$$

KYZ091>093-OHZ055-061-077-WVZ005-015-034-035-042-280400
...SOUTHERN OHIO/WEST VIRGINIA...

CITY           SKY/WX    TMP DP  RH WIND       PRES   REMARKS
COVINGTON      CLEAR     50  48  93 S3        29.88R
COLUMBUS       PTCLDY    58  46  64 W9        29.86R
DAYTON         CLEAR     50  43  77 SW7       29.88R
WILMINGTON     CLEAR     54  46  74 W7        29.87R
HUNTINGTON     PTCLDY    64  50  60 W5        29.87R
CHARLESTON     PTCLDY    62  59  90 W3        29.86R
PINEVILLE*     MOCLDY    57  56  97 MISG      29.95R FOG
BECKLEY        CLEAR     59  55  87 S6        29.92R
BLUEFIELD      CLEAR     58  53  84 CALM      29.95R
LOGAN CO APT*    N/A     64  61  88 CALM      29.89R
$$

VAZ002-007-008-TNZ017-027-036-066-071-280400
...SOUTHWEST VIRGINIA/EAST TENNESSEE...

CITY           SKY/WX    TMP DP  RH WIND       PRES   REMARKS
WISE*          PTCLDY    61  61 100 CALM      29.94S
JONESVILLE*      N/A     59  59 100 CALM      29.91R
ABINGDON*      FOG       60  60 100 CALM      29.93R VSB 1/4
BRISTOL        FOG       60  59  96 CALM      29.91R VSB 1/4
MORRISTOWN*    CLEAR     64  61  88 S3        29.88R
SEVIERVILLE*   CLEAR     61  57  88 CALM      29.88R
KNOXVILLE      PTCLDY    65  57  75 S3        29.87R
LAFOLLETTE*    CLEAR     59  54  82 CALM      29.92R
OAK RIDGE      CLEAR     62  58  86 CALM      29.89R
CROSSVILLE     CLEAR     55  50  83 CALM      29.92R
NASHVILLE      PTCLDY    57  51  80 CALM      29.89R
$$

...KEY TO REMARKS...
VSB - VISIBILITY IN MILES
WCI - WIND CHILL INDEX
HX  - HEAT INDEX

$$




USA.gov is the U.S. government's official web portal to all federal, state and local government web resources and services.